Location: Vihti�l�
(61.3833°N, 23.0667°E)
Time: 04:44:22
(UTC+00:00)

SJ 16-02 - Pass Details

Date: 29 November 2020
Orbit: 606 x 616 km, 75.0° (Epoch: 19 January)

Event Time Altitude Azimuth Distance (km) Brightness Sun altitude
Exits shadow 04:46:09 11° 234° (SW) 1,912 3.5 -15.3°
Maximum altitude 04:50:18 52° 310° (NW) 778 1.5 -14.8°
Drops below altitude 10° 04:54:40 10° 28° (NNE) 1,995 4.1 -14.4°
Sets 04:56:58 0° 33° (NNE) 2,904 5.0 -14.1°
